カタログに戻る

PRSC-EO2

運用中科学SSO
NORAD 67746·PAYLOAD·🇨🇳 China
この衛星名は、まだ公式ソースで確認されていません。

打ち上げ Feb 12, 2026 から South China Sea Launch Area

Loading…

次のパス (今後24時間)

TLE

最新Source: Space-Track

元期: Sep 13, 2026, 21:45 UTC

1 67746U 26027A   26256.90630636  .00005193  00000-0  24395-3 0  9995
2 67746  97.5177  24.6299 0008214 263.6561  96.3739 15.20028107 32439

AllMySatでPRSC-EO2をリアルタイム追跡

Download on the App Store